Change the Weather History Date:

Saturday, January 11, 2014

  Actual Average Record
Temperature  
Mean Temperature 34 °F -  
Max Temperature 42 °F 24 °F 64 °F (1990)
Min Temperature 26 °F 3 °F -22 °F (1978)
Degree Days  
Heating Degree Days 31    
Moisture  
Dew Point 23 °F    
Average Humidity 67    
Maximum Humidity 80    
Minimum Humidity 49    
Precipitation  
Precipitation 0.00 in - - ()
Sea Level Pressure  
Sea Level Pressure 29.69 in    
Wind  
Wind Speed 13 mph (West)    
Max Wind Speed 21 mph    
Max Gust Speed 26 mph    
Visibility 10 miles    
Events      
Averages and records for this station are not official NWS values.
T = Trace of Precipitation, MM = Missing Value Source: NWS Daily Summary

Daily Weather History Graph

Daily Weather History Graph

Search for Another Location

Airport or City:

Trip Planner

Search our weather history database for the weather conditions in past years. The results will help you decide how hot, cold, wet, or windy it might be!

Date:

Astronomy

Jan. 11, 2014 Rise Set
Actual Time 7:59 AM CST 5:16 PM CST
Civil Twilight 7:27 AM CST 5:47 PM CST
Nautical Twilight 6:52 AM CST 6:22 PM CST
Astronomical Twilight 6:18 AM CST 6:57 PM CST
Moon 2:02 PM CST (1/11) 4:03 AM CST (1/11)
Length of Visible Light 10h 20m
Length of Day
9h 16m
Waxing Gibbous, 83% of the Moon is Illuminated
Jan 11
Waxing Gibbous
Jan 15
Full
Jan 23
Last Quarter
Jan 30
New
Feb 6
First Quarter

Hourly Weather History & Observations

Time (CST) Temp. Windchill Dew Point Humidity Pressure Visibility Wind Dir Wind Speed Gust Speed Precip Events Conditions
12:15 AM 30.2 °F 19.8 °F 23.0 °F 75% 29.60 in 10.0 mi West 13.8 mph - N/A   Clear
12:35 AM 30.2 °F 19.8 °F 23.0 °F 75% 29.60 in 10.0 mi West 13.8 mph - N/A   Clear
12:55 AM 30.2 °F 19.8 °F 23.0 °F 75% 29.60 in 10.0 mi West 13.8 mph - N/A   Partly Cloudy
1:15 AM 32.0 °F 23.6 °F 23.0 °F 69% 29.59 in 10.0 mi West 10.4 mph - N/A   Mostly Cloudy
1:35 AM 30.2 °F 22.6 °F 23.0 °F 75% 29.59 in 10.0 mi WSW 8.1 mph - N/A   Overcast
1:55 AM 30.2 °F 22.6 °F 21.2 °F 69% 29.59 in 10.0 mi WSW 8.1 mph - N/A   Overcast
2:15 AM 30.2 °F 20.8 °F 23.0 °F 75% 29.60 in 10.0 mi WSW 11.5 mph - N/A   Mostly Cloudy
2:35 AM 32.0 °F 22.5 °F 21.2 °F 64% 29.61 in 10.0 mi West 12.7 mph - N/A   Partly Cloudy
2:55 AM 33.8 °F 22.8 °F 21.2 °F 60% 29.61 in 10.0 mi West 18.4 mph - N/A   Partly Cloudy
3:15 AM 33.8 °F 23.5 °F 21.2 °F 60% 29.61 in 10.0 mi West 16.1 mph - N/A   Clear
3:35 AM 32.0 °F 21.6 °F 23.0 °F 69% 29.62 in 10.0 mi West 15.0 mph - N/A   Clear
3:55 AM 30.2 °F 19.8 °F 23.0 °F 75% 29.63 in 10.0 mi West 13.8 mph - N/A   Clear
4:15 AM 30.2 °F 19.3 °F 21.2 °F 69% 29.63 in 10.0 mi West 15.0 mph - N/A   Clear
4:35 AM 30.2 °F 19.3 °F 21.2 °F 69% 29.64 in 10.0 mi West 15.0 mph - N/A   Clear
4:55 AM 28.4 °F 18.5 °F 23.0 °F 80% 29.65 in 10.0 mi West 11.5 mph - N/A   Clear
5:15 AM 28.4 °F 19.1 °F 23.0 °F 80% 29.65 in 10.0 mi WNW 10.4 mph - N/A   Clear
5:35 AM 28.4 °F 17.0 °F 23.0 °F 80% 29.66 in 10.0 mi WNW 15.0 mph - N/A   Clear
5:55 AM 28.4 °F 15.8 °F 23.0 °F 80% 29.67 in 10.0 mi WNW 18.4 mph - N/A   Clear
6:15 AM 28.4 °F 16.6 °F 21.2 °F 74% 29.68 in 10.0 mi WNW 16.1 mph - N/A   Clear
6:35 AM 28.4 °F 16.6 °F 21.2 °F 74% 29.69 in 10.0 mi WNW 16.1 mph - N/A   Clear
6:55 AM 26.6 °F 13.8 °F 21.2 °F 80% 29.70 in 10.0 mi WNW 17.3 mph - N/A   Clear
7:15 AM 26.6 °F 14.3 °F 21.2 °F 80% 29.71 in 10.0 mi WNW 16.1 mph - N/A   Clear
7:35 AM 26.6 °F 13.4 °F 21.2 °F 80% 29.72 in 10.0 mi WNW 18.4 mph 24.2 mph N/A   Clear
7:55 AM 26.6 °F 14.7 °F 21.2 °F 80% 29.73 in 10.0 mi WNW 15.0 mph - N/A   Clear
8:15 AM 26.6 °F 13.8 °F 21.2 °F 80% 29.74 in 10.0 mi WNW 17.3 mph - N/A   Clear
8:35 AM 26.6 °F 13.8 °F 21.2 °F 80% 29.75 in 10.0 mi WNW 17.3 mph - N/A   Clear
8:55 AM 26.6 °F 15.2 °F 21.2 °F 80% 29.76 in 10.0 mi WNW 13.8 mph 19.6 mph N/A   Clear
9:15 AM 26.6 °F 13.4 °F 21.2 °F 80% 29.77 in 10.0 mi WNW 18.4 mph 21.9 mph N/A   Clear
9:35 AM 28.4 °F 15.4 °F 21.2 °F 74% 29.78 in 10.0 mi WNW 19.6 mph - N/A   Clear
9:55 AM 28.4 °F 15.8 °F 21.2 °F 74% 29.79 in 10.0 mi WNW 18.4 mph 24.2 mph N/A   Clear
10:15 AM 30.2 °F 17.8 °F 23.0 °F 75% 29.79 in 10.0 mi WNW 19.6 mph 26.5 mph N/A   Clear
10:35 AM 30.2 °F 18.5 °F 21.2 °F 69% 29.80 in 10.0 mi WNW 17.3 mph - N/A   Clear
10:55 AM 30.2 °F 17.4 °F 23.0 °F 75% 29.81 in 10.0 mi WNW 20.7 mph - N/A   Clear
11:15 AM 32.0 °F 20.1 °F 23.0 °F 69% 29.81 in 10.0 mi WNW 19.6 mph 24.2 mph N/A   Clear
11:35 AM 33.8 °F 23.9 °F 24.8 °F 70% 29.80 in 10.0 mi WNW 15.0 mph - N/A   Clear
11:55 AM 33.8 °F 22.5 °F 24.8 °F 70% 29.79 in 10.0 mi WNW 19.6 mph 24.2 mph N/A   Clear
12:15 PM 35.6 °F 25.2 °F 24.8 °F 65% 29.79 in 10.0 mi WNW 18.4 mph 24.2 mph N/A   Clear
12:35 PM 35.6 °F 26.2 °F 26.6 °F 70% 29.79 in 10.0 mi West 15.0 mph - N/A   Clear
12:55 PM 37.4 °F 27.8 °F 24.8 °F 60% 29.78 in 10.0 mi WNW 17.3 mph - N/A   Clear
1:15 PM 37.4 °F 29.3 °F 26.6 °F 65% 29.76 in 10.0 mi WNW 12.7 mph - N/A   Clear
1:35 PM 39.2 °F 30.8 °F 24.8 °F 56% 29.77 in 10.0 mi WNW 15.0 mph 18.4 mph N/A   Clear
1:55 PM 39.2 °F 31.2 °F 26.6 °F 61% 29.76 in 10.0 mi West 13.8 mph - N/A   Clear
2:15 PM 39.2 °F 32.0 °F 26.6 °F 61% 29.76 in 10.0 mi West 11.5 mph - N/A   Clear
2:35 PM 41.0 °F 34.3 °F 26.6 °F 57% 29.76 in 10.0 mi West 11.5 mph - N/A   Clear
2:55 PM 41.0 °F 34.7 °F 26.6 °F 57% 29.76 in 10.0 mi West 10.4 mph - N/A   Clear
3:15 PM 41.0 °F 34.7 °F 24.8 °F 53% 29.76 in 10.0 mi WNW 10.4 mph - N/A   Clear
3:35 PM 41.0 °F 35.8 °F 24.8 °F 53% 29.76 in 10.0 mi West 8.1 mph - N/A   Clear
3:55 PM 41.0 °F 37.1 °F 24.8 °F 53% 29.76 in 10.0 mi West 5.8 mph - N/A   Clear
4:15 PM 42.8 °F - 24.8 °F 49% 29.75 in 10.0 mi Calm Calm - N/A   Clear
4:35 PM 41.0 °F 39.0 °F 24.8 °F 53% 29.74 in 10.0 mi SSW 3.5 mph - N/A   Clear
4:55 PM 41.0 °F - 23.0 °F 49% 29.73 in 10.0 mi Calm Calm - N/A   Clear
5:15 PM 39.2 °F 37.0 °F 21.2 °F 49% 29.74 in 10.0 mi ESE 3.5 mph - N/A   Clear
5:35 PM 37.4 °F 34.9 °F 21.2 °F 52% 29.74 in 10.0 mi SE 3.5 mph - N/A   Clear
5:55 PM 37.4 °F 32.8 °F 21.2 °F 52% 29.72 in 10.0 mi SE 5.8 mph - N/A   Clear
6:15 PM 35.6 °F 30.7 °F 21.2 °F 56% 29.72 in 10.0 mi SE 5.8 mph - N/A   Clear
6:35 PM 35.6 °F 29.9 °F 21.2 °F 56% 29.72 in 10.0 mi SSE 6.9 mph - N/A   Clear
6:55 PM 35.6 °F 29.9 °F 21.2 °F 56% 29.71 in 10.0 mi SSE 6.9 mph - N/A   Clear
7:15 PM 33.8 °F 28.6 °F 21.2 °F 60% 29.70 in 10.0 mi SE 5.8 mph - N/A   Clear
7:35 PM 33.8 °F 28.6 °F 23.0 °F 65% 29.70 in 10.0 mi SSE 5.8 mph - N/A   Clear
7:55 PM 33.8 °F 28.6 °F 21.2 °F 60% 29.68 in 10.0 mi SE 5.8 mph - N/A   Clear
8:15 PM 30.2 °F - 21.2 °F 69% 29.68 in 10.0 mi Calm Calm - N/A   Clear
8:35 PM 33.8 °F 29.6 °F 21.2 °F 60% 29.68 in 10.0 mi South 4.6 mph - N/A   Clear
8:55 PM 32.0 °F 28.7 °F 21.2 °F 64% 29.67 in 10.0 mi East 3.5 mph - N/A   Clear
9:15 PM 30.2 °F 25.4 °F 21.2 °F 69% 29.66 in 10.0 mi East 4.6 mph - N/A   Clear
9:35 PM 30.2 °F 24.3 °F 19.4 °F 64% 29.64 in 10.0 mi East 5.8 mph - N/A   Clear
9:55 PM 28.4 °F 22.2 °F 21.2 °F 74% 29.63 in 10.0 mi East 5.8 mph - N/A   Clear
10:15 PM 28.4 °F 22.2 °F 21.2 °F 74% 29.62 in 10.0 mi East 5.8 mph - N/A   Clear
10:35 PM 28.4 °F 19.7 °F 21.2 °F 74% 29.60 in 10.0 mi East 9.2 mph - N/A   Clear
10:55 PM 30.2 °F 22.6 °F 21.2 °F 69% 29.57 in 10.0 mi East 8.1 mph - N/A   Clear
11:15 PM 28.4 °F 19.7 °F 21.2 °F 74% 29.56 in 10.0 mi East 9.2 mph - N/A   Clear
11:35 PM 30.2 °F 24.3 °F 21.2 °F 69% 29.54 in 10.0 mi ESE 5.8 mph - N/A   Clear
11:55 PM 32.0 °F 23.6 °F 23.0 °F 69% 29.52 in 10.0 mi SSE 10.4 mph - N/A   Clear